This is the latest recevied weather packets stored in our database for station/object PA3BWK. If no packets are shown the sender has not sent any weather packets the latest 10 day(s).
| Time | Temp. | Humidity | Pressure | Rain* | Wind** | Luminosity | Snow |
|---|---|---|---|---|---|---|---|
| 1777470331 | 18.89° C | 28% | 1026.7 hPa | 0 mm | - | 689 W/m² | - |
| 1777470271 | 18.89° C | 28% | 1026.8 hPa | 0 mm | - | 691 W/m² | - |
| 1777470211 | 18.89° C | 29% | 1026.8 hPa | 0 mm | - | 693 W/m² | - |
| 1777470152 | 18.89° C | 28% | 1026.8 hPa | 0 mm | - | 695 W/m² | - |
| 1777470092 | 18.89° C | 27% | 1026.7 hPa | 0 mm | - | 696 W/m² | - |
| 1777470032 | 18.89° C | 27% | 1026.9 hPa | 0 mm | - | 698 W/m² | - |
| 1777469973 | 18.89° C | 30% | 1026.9 hPa | 0 mm | - | 702 W/m² | - |
| 1777469911 | 18.89° C | 30% | 1027 hPa | 0 mm | - | 698 W/m² | - |
| 1777469851 | 18.89° C | 28% | 1026.9 hPa | 0 mm | - | 707 W/m² | - |
| 1777469790 | 18.89° C | 27% | 1026.9 hPa | 0 mm | - | 707 W/m² | - |
| 1777469727 | 18.89° C | 27% | 1026.9 hPa | 0 mm | - | 707 W/m² | - |
| 1777469666 | 18.89° C | 27% | 1026.9 hPa | 0 mm | - | 709 W/m² | - |
| 1777469605 | 18.89° C | 27% | 1027 hPa | 0 mm | - | 709 W/m² | - |
| 1777469544 | 18.89° C | 28% | 1027 hPa | 0 mm | - | 712 W/m² | - |
| 1777469482 | 18.89° C | 30% | 1027 hPa | 0 mm | - | 710 W/m² | - |
| 1777469420 | 18.89° C | 31% | 1026.8 hPa | 0 mm | - | 712 W/m² | - |
| 1777469360 | 18.89° C | 30% | 1026.9 hPa | 0 mm | - | 712 W/m² | - |
| 1777469297 | 18.89° C | 30% | 1026.9 hPa | 0 mm | - | 712 W/m² | - |
| 1777469236 | 18.89° C | 31% | 1027 hPa | 0 mm | - | 716 W/m² | - |
| 1777469174 | 18.89° C | 33% | 1026.9 hPa | 0 mm | - | 719 W/m² | - |
| 1777469110 | 18.89° C | 34% | 1026.8 hPa | 0 mm | - | 723 W/m² | - |
| 1777469049 | 18.89° C | 31% | 1026.9 hPa | 0 mm | - | 718 W/m² | - |
| 1777468987 | 18.89° C | 30% | 1026.8 hPa | 0 mm | - | 721 W/m² | - |
| 1777468926 | 18.89° C | 32% | 1026.9 hPa | 0 mm | - | 723 W/m² | - |
| 1777468865 | 18.89° C | 33% | 1026.8 hPa | 0 mm | - | 721 W/m² | - |
* Rain latest hour (hover to see other rain measurements)
** Current wind speed in m/s (hover to see current wind gust speed)